| time (UTC) | temp F | wind direction | speed MPH | gust MPH | rain 1hr in | rain 24hr in | rain mn in | humidity % | barometer mb |
| 20260508010004 | 50 | 153 | 1.0 | 3.0 | 0.00 | 0.00 | 0.00 | 75 | 1012.9 |
| 20260508005004 | 50 | 161 | 2.0 | 4.0 | 0.00 | 0.00 | 0.00 | 74 | 1013.0 |
| 20260508004025 | 51 | 162 | 2.0 | 4.0 | 0.00 | 0.00 | 0.00 | 74 | 1013.1 |
| 20260508003005 | 52 | 170 | 0.0 | 5.0 | 0.00 | 0.00 | 0.00 | 74 | 1013.3 |
| 20260508002025 | 52 | 236 | 1.0 | 4.0 | 0.00 | 0.00 | 0.00 | 73 | 1013.6 |
| 20260508001025 | 52 | 219 | 2.0 | 5.0 | 0.00 | 0.00 | 0.00 | 72 | 1013.6 |
| 20260508000025 | 52 | 222 | 2.0 | 5.0 | 0.00 | 0.00 | 0.00 | 72 | 1013.4 |
| 20260507235024 | 52 | 221 | 2.0 | 5.0 | 0.00 | 0.00 | 0.00 | 71 | 1013.4 |
| 20260507234025 | 52 | 237 | 2.0 | 5.0 | 0.00 | 0.00 | 0.00 | 72 | 1013.5 |
| 20260507233004 | 52 | 331 | 1.0 | 3.0 | 0.00 | 0.00 | 0.00 | 73 | 1013.4 |
| 20260507232004 | 52 | 268 | 1.0 | 3.0 | 0.00 | 0.00 | 0.00 | 74 | 1013.6 |
| 20260507231004 | 51 | 330 | 1.0 | 8.0 | 0.00 | 0.00 | 0.00 | 76 | 1014.0 |
| 20260507230004 | 50 | 314 | 3.0 | 9.0 | 0.00 | 0.00 | 0.00 | 77 | 1014.3 |
| 20260507225004 | 51 | 340 | 5.0 | 12.0 | 0.00 | 0.00 | 0.00 | 76 | 1014.5 |
| 20260507224004 | 54 | 313 | 6.0 | 14.0 | 0.00 | 0.00 | 0.00 | 66 | 1014.4 |
| 20260507223025 | 57 | 262 | 4.0 | 10.0 | 0.00 | 0.00 | 0.00 | 45 | 1013.8 |
| 20260507222004 | 58 | 240 | 4.0 | 10.0 | 0.00 | 0.00 | 0.00 | 44 | 1013.4 |
| 20260507221004 | 58 | 229 | 5.0 | 14.0 | 0.00 | 0.00 | 0.00 | 43 | 1013.1 |
| 20260507220004 | 59 | 224 | 4.0 | 13.0 | 0.00 | 0.00 | 0.00 | 43 | 1012.9 |
| 20260507215004 | 58 | 214 | 5.0 | 9.0 | 0.00 | 0.00 | 0.00 | 44 | 1012.9 |
| 20260507214004 | 58 | 236 | 5.0 | 11.0 | 0.00 | 0.00 | 0.00 | 43 | 1012.9 |
| 20260507213004 | 58 | 247 | 4.0 | 12.0 | 0.00 | 0.00 | 0.00 | 43 | 1012.9 |
| 20260507212004 | 59 | 236 | 4.0 | 14.0 | 0.00 | 0.00 | 0.00 | 46 | 1013.0 |
| 20260507211004 | 58 | 221 | 6.0 | 12.0 | 0.00 | 0.00 | 0.00 | 44 | 1012.9 |
| 20260507210005 | 59 | 224 | 4.0 | 15.0 | 0.00 | 0.00 | 0.00 | 42 | 1013.1 |
| 20260507205004 | 59 | 218 | 5.0 | 14.0 | 0.00 | 0.00 | 0.00 | 42 | 1013.1 |
| 20260507204004 | 59 | 227 | 4.0 | 10.0 | 0.00 | 0.00 | 0.00 | 42 | 1013.1 |
| 20260507203004 | 59 | 222 | 4.0 | 10.0 | 0.00 | 0.00 | 0.00 | 47 | 1013.2 |
| 20260507202004 | 59 | 222 | 5.0 | 13.0 | 0.00 | 0.00 | 0.00 | 45 | 1013.4 |
| 20260507201004 | 59 | 224 | 5.0 | 11.0 | 0.00 | 0.00 | 0.00 | 46 | 1013.6 |
| 20260507200004 | 59 | 218 | 3.0 | 11.0 | 0.00 | 0.00 | 0.00 | 45 | 1013.8 |
| 20260507195004 | 59 | 217 | 4.0 | 11.0 | 0.00 | 0.00 | 0.00 | 43 | 1013.9 |
| 20260507194004 | 60 | 233 | 4.0 | 10.0 | 0.00 | 0.00 | 0.00 | 46 | 1014.0 |
| 20260507193004 | 59 | 200 | 2.0 | 7.0 | 0.00 | 0.00 | 0.00 | 43 | 1014.1 |
| 20260507192004 | 58 | 205 | 4.0 | 7.0 | 0.00 | 0.00 | 0.00 | 44 | 1014.1 |
| 20260507191004 | 59 | 254 | 4.0 | 11.0 | 0.00 | 0.00 | 0.00 | 44 | 1014.5 |
| 20260507190005 | 59 | 245 | 3.0 | 11.0 | 0.00 | 0.00 | 0.00 | 47 | 1014.5 |
| 20260507185004 | 59 | 261 | 2.0 | 11.0 | 0.00 | 0.00 | 0.00 | 49 | 1014.7 |
| 20260507184004 | 58 | 263 | 4.0 | 10.0 | 0.00 | 0.00 | 0.00 | 44 | 1014.6 |
| 20260507183004 | 58 | 249 | 3.0 | 8.0 | 0.00 | 0.00 | 0.00 | 46 | 1014.7 |
| 20260507182025 | 58 | 280 | 3.0 | 10.0 | 0.00 | 0.00 | 0.00 | 41 | 1014.9 |
| 20260507181025 | 58 | 290 | 5.0 | 10.0 | 0.00 | 0.00 | 0.00 | 46 | 1014.9 |
| 20260507180024 | 58 | 325 | 4.0 | 11.0 | 0.00 | 0.00 | 0.00 | 48 | 1014.9 |
| 20260507175004 | 58 | 245 | 4.0 | 13.0 | 0.00 | 0.00 | 0.00 | 47 | 1015.3 |
| 20260507174004 | 57 | 268 | 3.0 | 10.0 | 0.00 | 0.00 | 0.00 | 50 | 1015.4 |
| 20260507173004 | 56 | 257 | 4.0 | 9.0 | 0.00 | 0.00 | 0.00 | 46 | 1015.6 |
| 20260507172004 | 56 | 292 | 3.0 | 11.0 | 0.00 | 0.00 | 0.00 | 45 | 1015.7 |
| 20260507171004 | 57 | 306 | 4.0 | 11.0 | 0.00 | 0.00 | 0.00 | 48 | 1015.8 |
| 20260507170004 | 57 | 249 | 3.0 | 8.0 | 0.00 | 0.00 | 0.00 | 51 | 1015.9 |
| 20260507165003 | 57 | 239 | 4.0 | 13.0 | 0.00 | 0.00 | 0.00 | 49 | 1016.0 |
| 20260507164003 | 55 | 257 | 4.0 | 9.0 | 0.00 | 0.00 | 0.00 | 46 | 1016.1 |
| 20260507163004 | 56 | 328 | 4.0 | 11.0 | 0.00 | 0.00 | 0.00 | 47 | 1016.3 |
| 20260507162004 | 56 | 256 | 4.0 | 10.0 | 0.00 | 0.00 | 0.00 | 49 | 1016.3 |
| 20260507161004 | 55 | 264 | 3.0 | 8.0 | 0.00 | 0.00 | 0.00 | 52 | 1016.4 |
| 20260507160004 | 54 | 308 | 3.0 | 12.0 | 0.00 | 0.00 | 0.00 | 50 | 1016.4 |
| 20260507155004 | 55 | 283 | 3.0 | 8.0 | 0.00 | 0.00 | 0.00 | 48 | 1016.4 |
| 20260507154004 | 54 | 269 | 3.0 | 8.0 | 0.00 | 0.00 | 0.00 | 48 | 1016.5 |
| 20260507153004 | 54 | 329 | 3.0 | 11.0 | 0.00 | 0.00 | 0.00 | 51 | 1016.4 |
| 20260507152003 | 54 | 316 | 3.0 | 8.0 | 0.00 | 0.00 | 0.00 | 48 | 1016.4 |
| 20260507151004 | 53 | 322 | 3.0 | 9.0 | 0.00 | 0.00 | 0.00 | 46 | 1016.4 |
| 20260507150004 | 53 | 290 | 2.0 | 7.0 | 0.00 | 0.00 | 0.00 | 51 | 1016.3 |
| 20260507145003 | 53 | 277 | 2.0 | 7.0 | 0.00 | 0.00 | 0.00 | 48 | 1016.3 |
| 20260507144004 | 53 | 312 | 3.0 | 8.0 | 0.00 | 0.00 | 0.00 | 49 | 1016.4 |
| 20260507143004 | 52 | 282 | 3.0 | 9.0 | 0.00 | 0.00 | 0.00 | 50 | 1016.4 |
| 20260507142004 | 52 | 315 | 3.0 | 8.0 | 0.00 | 0.00 | 0.00 | 49 | 1016.4 |
| 20260507141004 | 52 | 270 | 2.0 | 7.0 | 0.00 | 0.00 | 0.00 | 51 | 1016.5 |
| 20260507140004 | 51 | 242 | 3.0 | 9.0 | 0.00 | 0.00 | 0.00 | 55 | 1016.5 |
| 20260507135004 | 50 | 253 | 2.0 | 7.0 | 0.00 | 0.00 | 0.00 | 54 | 1016.4 |
| 20260507134004 | 50 | 321 | 2.0 | 6.0 | 0.00 | 0.00 | 0.00 | 59 | 1016.4 |
| 20260507133003 | 49 | 335 | 2.0 | 5.0 | 0.00 | 0.00 | 0.00 | 58 | 1016.4 |
| 20260507132003 | 49 | 313 | 1.0 | 4.0 | 0.00 | 0.00 | 0.00 | 59 | 1016.4 |
| 20260507131003 | 48 | 306 | 1.0 | 4.0 | 0.00 | 0.00 | 0.00 | 61 | 1016.4 |
| 20260507130004 | 48 | 290 | 1.0 | 4.0 | 0.00 | 0.00 | 0.00 | 68 | 1016.4 |
| 20260507125004 | 47 | 271 | 1.0 | 3.0 | 0.00 | 0.00 | 0.00 | 67 | 1016.3 |
| 20260507124004 | 45 | 270 | 0.0 | 2.0 | 0.00 | 0.00 | 0.00 | 71 | 1016.4 |
| 20260507123024 | 44 | 252 | 0.0 | 3.0 | 0.00 | 0.00 | 0.00 | 77 | 1016.3 |
| 20260507122004 | 41 | 0 | 0.0 | 0.0 | 0.00 | 0.00 | 0.00 | 86 | 1016.1 |
| 20260507121003 | 39 | 0 | 0.0 | 0.0 | 0.00 | 0.00 | 0.00 | 90 | 1016.1 |
| 20260507120004 | 38 | 0 | 0.0 | 0.0 | 0.00 | 0.00 | 0.00 | 91 | 1016.0 |
| 20260507115004 | 37 | 0 | 0.0 | 0.0 | 0.00 | 0.00 | 0.00 | 91 | 1016.0 |
| 20260507114003 | 36 | 0 | 0.0 | 0.0 | 0.00 | 0.00 | 0.00 | 91 | 1015.9 |
| 20260507113004 | 36 | 0 | 0.0 | 0.0 | 0.00 | 0.00 | 0.00 | 91 | 1015.8 |
| 20260507112004 | 36 | 0 | 0.0 | 0.0 | 0.00 | 0.00 | 0.00 | 91 | 1015.7 |
| 20260507111004 | 36 | 0 | 0.0 | 0.0 | 0.00 | 0.00 | 0.00 | 91 | 1015.7 |
| 20260507110004 | 35 | 0 | 0.0 | 0.0 | 0.00 | 0.00 | 0.00 | 91 | 1015.7 |
| 20260507105004 | 35 | 0 | 0.0 | 0.0 | 0.00 | 0.00 | 0.00 | 91 | 1015.8 |
| 20260507104003 | 34 | 160 | 0.0 | 1.0 | 0.00 | 0.00 | 0.00 | 91 | 1015.8 |
| 20260507103003 | 34 | 52 | 0.0 | 2.0 | 0.00 | 0.00 | 0.00 | 91 | 1015.8 |
| 20260507102025 | 35 | 0 | 0.0 | 0.0 | 0.00 | 0.00 | 0.00 | 91 | 1015.8 |
| 20260507101003 | 34 | 0 | 0.0 | 0.0 | 0.00 | 0.00 | 0.00 | 91 | 1015.8 |
| 20260507100004 | 34 | 0 | 0.0 | 0.0 | 0.00 | 0.00 | 0.00 | 91 | 1015.8 |
| 20260507095003 | 34 | 0 | 0.0 | 0.0 | 0.00 | 0.00 | 0.00 | 91 | 1015.9 |
| 20260507094004 | 34 | 0 | 0.0 | 0.0 | 0.00 | 0.00 | 0.00 | 90 | 1015.7 |
| 20260507093004 | 34 | 0 | 0.0 | 0.0 | 0.00 | 0.00 | 0.00 | 91 | 1015.7 |
| 20260507092003 | 35 | 0 | 0.0 | 0.0 | 0.00 | 0.00 | 0.00 | 90 | 1015.6 |
| 20260507091003 | 35 | 0 | 0.0 | 0.0 | 0.00 | 0.00 | 0.00 | 90 | 1015.7 |
| 20260507090004 | 35 | 0 | 0.0 | 0.0 | 0.00 | 0.00 | 0.00 | 90 | 1015.7 |
| 20260507085003 | 35 | 0 | 0.0 | 0.0 | 0.00 | 0.00 | 0.00 | 90 | 1015.7 |
| 20260507084004 | 35 | 0 | 0.0 | 0.0 | 0.00 | 0.00 | 0.00 | 89 | 1015.7 |
| 20260507083004 | 35 | 0 | 0.0 | 0.0 | 0.00 | 0.00 | 0.00 | 89 | 1015.6 |
| 20260507082003 | 35 | 0 | 0.0 | 0.0 | 0.00 | 0.00 | 0.00 | 89 | 1015.5 |
| 20260507081025 | 36 | 0 | 0.0 | 0.0 | 0.00 | 0.00 | 0.00 | 88 | 1015.6 |
| 20260507080004 | 36 | 0 | 0.0 | 0.0 | 0.00 | 0.00 | 0.00 | 88 | 1015.4 |
| 20260507075003 | 36 | 0 | 0.0 | 0.0 | 0.00 | 0.00 | 0.00 | 88 | 1015.5 |
| 20260507074003 | 37 | 0 | 0.0 | 0.0 | 0.00 | 0.00 | 0.00 | 87 | 1015.6 |
| 20260507073004 | 37 | 0 | 0.0 | 0.0 | 0.00 | 0.01 | 0.00 | 86 | 1015.6 |
| 20260507072003 | 38 | 0 | 0.0 | 0.0 | 0.00 | 0.01 | 0.00 | 85 | 1015.6 |
| 20260507071003 | 38 | 0 | 0.0 | 0.0 | 0.00 | 0.01 | 0.00 | 83 | 1015.6 |
| 20260507070024 | 38 | 0 | 0.0 | 0.0 | 0.00 | 0.01 | 0.00 | 81 | 1015.6 |
| 20260507065025 | 39 | 0 | 0.0 | 0.0 | 0.00 | 0.01 | 0.00 | 80 | 1015.7 |
| 20260507064004 | 40 | 0 | 0.0 | 0.0 | 0.00 | 0.01 | 0.00 | 76 | 1015.8 |
| 20260507063025 | 41 | 0 | 0.0 | 0.0 | 0.00 | 0.01 | 0.00 | 74 | 1015.9 |
| 20260507062004 | 42 | 346 | 0.0 | 2.0 | 0.00 | 0.01 | 0.00 | 71 | 1015.9 |
| 20260507061003 | 43 | 0 | 0.0 | 0.0 | 0.00 | 0.01 | 0.00 | 71 | 1015.9 |
| 20260507060004 | 43 | 329 | 0.0 | 3.0 | 0.00 | 0.01 | 0.00 | 71 | 1015.9 |
| 20260507055004 | 44 | 341 | 1.0 | 3.0 | 0.00 | 0.01 | 0.00 | 71 | 1015.8 |
| 20260507054003 | 44 | 0 | 0.0 | 2.0 | 0.00 | 0.01 | 0.00 | 72 | 1015.7 |
| 20260507053024 | 44 | 346 | 1.0 | 2.0 | 0.00 | 0.02 | 0.00 | 73 | 1015.8 |
| 20260507052004 | 44 | 346 | 1.0 | 2.0 | 0.00 | 0.02 | 0.00 | 73 | 1015.8 |
| 20260507051003 | 44 | 350 | 1.0 | 4.0 | 0.00 | 0.02 | 0.00 | 74 | 1015.7 |
| 20260507050004 | 43 | 330 | 1.0 | 3.0 | 0.00 | 0.03 | 0.00 | 79 | 1015.6 |
| 20260507045004 | 41 | 318 | 0.0 | 1.0 | 0.00 | 0.03 | 0.00 | 86 | 1015.6 |
| 20260507044004 | 40 | 0 | 0.0 | 0.0 | 0.00 | 0.03 | 0.00 | 88 | 1015.7 |
| 20260507043003 | 40 | 0 | 0.0 | 0.0 | 0.00 | 0.05 | 0.00 | 88 | 1015.6 |
| 20260507042004 | 40 | 0 | 0.0 | 0.0 | 0.00 | 0.05 | 0.00 | 89 | 1015.5 |
| 20260507041003 | 40 | 0 | 0.0 | 0.0 | 0.00 | 0.05 | 0.00 | 89 | 1015.5 |
| 20260507040004 | 40 | 0 | 0.0 | 0.0 | 0.00 | 0.06 | 0.00 | 89 | 1015.5 |
| 20260507035003 | 40 | 0 | 0.0 | 0.0 | 0.00 | 0.06 | 0.06 | 89 | 1015.5 |
| 20260507034003 | 41 | 0 | 0.0 | 0.0 | 0.00 | 0.07 | 0.06 | 88 | 1015.5 |
| 20260507033025 | 42 | 0 | 0.0 | 0.0 | 0.00 | 0.09 | 0.06 | 88 | 1015.4 |
| 20260507032025 | 41 | 0 | 0.0 | 0.0 | 0.00 | 0.12 | 0.06 | 87 | 1015.4 |
| 20260507031003 | 42 | 0 | 0.0 | 0.0 | 0.00 | 0.15 | 0.06 | 87 | 1015.4 |
| 20260507030003 | 42 | 0 | 0.0 | 0.0 | 0.00 | 0.16 | 0.06 | 86 | 1015.3 |
| 20260507025024 | 43 | 0 | 0.0 | 0.0 | 0.00 | 0.16 | 0.06 | 85 | 1015.3 |
| 20260507024003 | 43 | 0 | 0.0 | 0.0 | 0.00 | 0.16 | 0.06 | 84 | 1015.3 |
| 20260507023025 | 44 | 0 | 0.0 | 0.0 | 0.00 | 0.16 | 0.06 | 83 | 1015.2 |
| 20260507022003 | 47 | 0 | 0.0 | 0.0 | 0.00 | 0.18 | 0.06 | 71 | 1015.1 |
| 20260507021003 | 47 | 0 | 0.0 | 0.0 | 0.00 | 0.20 | 0.06 | 71 | 1015.0 |
| 20260507020003 | 47 | 0 | 0.0 | 0.0 | 0.00 | 0.21 | 0.06 | 71 | 1014.9 |
| 20260507015004 | 47 | 0 | 0.0 | 0.0 | 0.00 | 0.21 | 0.06 | 71 | 1014.9 |
| 20260507014003 | 47 | 0 | 0.0 | 0.0 | 0.00 | 0.21 | 0.06 | 71 | 1014.8 |
| 20260507013003 | 48 | 0 | 0.0 | 0.0 | 0.00 | 0.21 | 0.06 | 64 | 1014.7 |
| 20260507012004 | 48 | 0 | 0.0 | 0.0 | 0.00 | 0.21 | 0.06 | 64 | 1014.7 |
| 20260507011003 | 50 | 0 | 0.0 | 0.0 | 0.00 | 0.22 | 0.06 | 64 | 1014.7 |